Location: Blangy-Tronville
(49.8790°N, 2.4226°E)
Time: 04:27:42
(UTC+00:00)

Cosmos 2016 Rocket - Visible Passes

Search period start: 19 February 2026 00:00
Search period end: 01 March 2026 00:00
Orbit: 946 x 1000 km, 83.0° (Epoch: 18 February)

Date Brightness Start Highest point End Pass type
(mag) Time Alt. Az. Time Alt. Az. Time Alt. Az.
19 Feb 5.0 05:23:06 10° SSE 05:28:53 48° E 05:34:47 10° NNE visible
19 Feb 6.1 17:58:52 10° NNW 18:04:22 33° W 18:09:53 10° SSW visible
20 Feb 6.9 04:05:56 10° ESE 04:09:04 15° ENE 04:12:12 10° NE visible
20 Feb 4.2 05:47:14 10° S 05:53:19 80° E 05:59:32 10° NNE visible
20 Feb 6.8 18:24:11 10° NW 18:28:32 20° W 18:32:54 10° SW visible
21 Feb 6.2 04:28:22 10° SE 04:33:08 25° E 04:37:57 10° NNE visible
21 Feb 4.0 06:11:53 10° SSW 06:17:56 64° WNW 06:24:06 10° N visible
21 Feb 7.2 18:50:35 10° NW 18:52:33 12° WNW 18:54:30 10° W visible
22 Feb 5.3 04:51:44 10° SSE 04:57:22 40° E 05:03:04 10° NNE visible
23 Feb 7.0 03:35:34 10° E 03:37:40 12° ENE 03:39:48 10° NE visible
23 Feb 4.4 05:15:43 10° S 05:21:45 67° E 05:27:54 10° NNE visible
23 Feb 6.7 17:52:15 10° NNW 17:57:06 24° W 18:01:59 10° SW visible
24 Feb 6.4 03:57:21 10° SE 04:01:42 21° E 04:06:05 10° NE visible
24 Feb 3.9 05:40:11 10° SSW 05:46:18 76° W 05:52:32 10° N visible
24 Feb 7.0 18:18:03 10° NW 18:21:11 14° WNW 18:24:19 10° WSW visible
25 Feb 5.6 04:20:28 10° SSE 04:25:52 34° E 04:31:20 10° NNE visible
25 Feb 4.2 06:05:09 10° SW 06:11:01 46° WNW 06:17:00 10° N visible
26 Feb 4.7 04:44:14 10° SSE 04:50:12 56° E 04:56:15 10° NNE visible
27 Feb 6.6 03:26:28 10° ESE 03:30:16 17° ENE 03:34:06 10° NE visible
27 Feb 4.0 05:08:33 10° S 05:14:41 89° W 05:20:57 10° N visible
28 Feb 5.9 03:49:16 10° SE 03:54:23 29° E 03:59:35 10° NNE visible
28 Feb 4.1 05:33:20 10° SSW 05:39:21 55° WNW 05:45:29 10° N visible
